Weather History for Whiting Fld NAS, FL

Change the Weather History Date:

Tuesday, March 4, 2014

  Actual Average Record
Temperature  
Mean Temperature 38 °F -  
Max Temperature 42 °F 66 °F 80 °F (1997)
Min Temperature 35 °F 46 °F 28 °F (2002)
Degree Days  
Heating Degree Days 26    
Moisture  
Dew Point 34 °F    
Average Humidity 80    
Maximum Humidity 93    
Minimum Humidity 70    
Precipitation  
Precipitation 0.01 in - - ()
Sea Level Pressure  
Sea Level Pressure 30.10 in    
Wind  
Wind Speed 7 mph (North)    
Max Wind Speed 13 mph    
Max Gust Speed -    
Visibility 7 miles    
Events Rain    
Averages and records for this station are not official NWS values.
T = Trace of Precipitation, MM = Missing Value Source: NWS Daily Summary

Daily Weather History Graph

Daily Weather History Graph

Search for Another Location

Airport:

Trip Planner

Search our weather history database for the weather conditions in past years. The results will help you decide how hot, cold, wet, or windy it might be!

Date:

Astronomy

Mar. 04, 2014 Rise Set
Actual Time 6:11 AM CST 5:48 PM CST
Civil Twilight 5:46 AM CST 6:13 PM CST
Nautical Twilight 5:19 AM CST 6:40 PM CST
Astronomical Twilight 4:51 AM CST 7:08 PM CST
Moon 8:13 AM CST (3/4) 9:36 PM CST (3/4)
Length of Visible Light 12h 26m
Length of Day
11h 37m
Waxing Crescent, 15% of the Moon is Illuminated
Mar 4
Waxing Crescent
Mar 8
First Quarter
Mar 16
Full
Mar 23
Last Quarter
Mar 30
New

Hourly Weather History & Observations

Time (CST) Temp. Windchill Dew Point Humidity Pressure Visibility Wind Dir Wind Speed Gust Speed Precip Events Conditions
12:56 AM 35.1 °F 27.9 °F 28.0 °F 76% 30.11 in 10.0 mi North 9.2 mph - N/A   Overcast
1:56 AM 35.1 °F 28.6 °F 28.0 °F 76% 30.08 in 10.0 mi NNE 8.1 mph - N/A   Overcast
2:56 AM 35.1 °F 28.6 °F 28.0 °F 76% 30.09 in 10.0 mi North 8.1 mph - N/A   Overcast
3:56 AM 35.1 °F 31.0 °F 28.0 °F 76% 30.10 in 10.0 mi North 4.6 mph - N/A   Overcast
4:56 AM 35.1 °F 30.1 °F 28.9 °F 78% 30.11 in 9.0 mi North 5.8 mph - N/A   Overcast
5:56 AM 35.1 °F 31.0 °F 28.9 °F 78% 30.11 in 9.0 mi NNE 4.6 mph - N/A   Overcast
6:56 AM 35.1 °F 29.3 °F 28.9 °F 78% 30.11 in 7.0 mi North 6.9 mph - N/A   Overcast
7:56 AM 36.0 °F 30.3 °F 28.9 °F 76% 30.12 in 9.0 mi NNE 6.9 mph - N/A   Overcast
8:56 AM 37.9 °F 34.4 °F 30.0 °F 73% 30.14 in 10.0 mi ENE 4.6 mph - N/A   Overcast
9:56 AM 41.0 °F 36.4 °F 32.0 °F 70% 30.14 in 9.0 mi Variable 6.9 mph - N/A   Overcast
10:56 AM 42.1 °F 39.2 °F 33.1 °F 70% 30.15 in 10.0 mi North 4.6 mph - N/A   Overcast
11:56 AM 41.0 °F 39.0 °F 32.0 °F 70% 30.13 in 10.0 mi WNW 3.5 mph - N/A   Overcast
12:56 PM 42.1 °F 38.4 °F 33.1 °F 70% 30.12 in 10.0 mi NNW 5.8 mph - N/A   Overcast
1:36 PM 41.0 °F 37.1 °F 33.1 °F 73% 30.14 in 9.0 mi North 5.8 mph - 0.00 in Rain Light Rain
1:56 PM 41.0 °F 33.9 °F 33.1 °F 73% 30.09 in 8.0 mi North 12.7 mph - 0.00 in   Overcast
2:38 PM 41.0 °F 34.3 °F 33.1 °F 73% 30.11 in 5.0 mi North 11.5 mph - 0.00 in Rain Light Rain
2:56 PM 41.0 °F 34.3 °F 34.0 °F 76% 30.07 in 5.0 mi NNE 11.5 mph - 0.00 in Rain Light Rain
3:39 PM 41.0 °F 34.7 °F 35.1 °F 79% 30.12 in 5.0 mi North 10.4 mph - 0.00 in Rain Light Rain
3:56 PM 41.0 °F 35.2 °F 35.1 °F 79% 30.08 in 7.0 mi North 9.2 mph - 0.00 in Rain Light Rain
4:56 PM 39.9 °F 35.1 °F 37.0 °F 89% 30.04 in 4.0 mi NE 6.9 mph - 0.00 in   Overcast
5:20 PM 39.9 °F 36.7 °F 37.0 °F 89% 30.10 in 4.0 mi East 4.6 mph - N/A   Overcast
5:39 PM 39.9 °F 35.1 °F 37.0 °F 89% 30.07 in 4.0 mi NNE 6.9 mph - N/A   Overcast
5:56 PM 41.0 °F 36.4 °F 37.9 °F 89% 30.06 in 5.0 mi NNE 6.9 mph - N/A   Overcast
6:56 PM 41.0 °F 38.0 °F 37.9 °F 89% 30.05 in 5.0 mi North 4.6 mph - N/A   Overcast
7:56 PM 41.0 °F 35.2 °F 37.9 °F 89% 30.07 in 4.0 mi North 9.2 mph - N/A   Overcast
8:11 PM 41.0 °F 39.0 °F 37.9 °F 89% 30.10 in 4.0 mi Variable 3.5 mph - 0.00 in Rain Light Rain
8:56 PM 41.0 °F 38.0 °F 37.9 °F 89% 30.10 in 4.0 mi NNW 4.6 mph - 0.00 in Rain Light Rain
9:56 PM 41.0 °F 37.1 °F 39.0 °F 93% 30.08 in 3.0 mi NNE 5.8 mph - 0.01 in Rain Light Rain
10:45 PM 42.1 °F 37.1 °F 39.0 °F 89% 30.09 in 3.0 mi North 8.1 mph - 0.00 in Rain Light Rain
10:56 PM 42.1 °F 37.1 °F 39.0 °F 89% 30.05 in 3.0 mi North 8.1 mph - 0.00 in   Overcast
11:56 PM 42.1 °F - - N/A% 30.06 in 3.0 mi Calm Calm - 0.00 in Rain Light Rain